Regional Weather Roundup
Issued by NWS

Home | Current Version | Previous Version | Text Only | Print | Product List | Glossary On
Versions: 1 2 3 4 5 6 7 8 9 10 11 12 13 14 15 16 17 18 19 20 21 22 23 24 25 26 27 28
000
ASUS46 KSEW 051510
RWRWA

WASHINGTON REGIONAL WEATHER ROUNDUP
NATIONAL WEATHER SERVICE SEATTLE WA
700 AM PST MON DEC 05 2016

NOTE:"FAIR" INDICATES FEW OR NO CLOUDS BELOW 12,000 FEET WITH NO
SIGNIFICANT WEATHER AND/OR OBSTRUCTIONS TO VISIBILITY.

WAZ507-509-555>559-051600-
SEATTLE, TACOMA, EVERETT, AND VICINITY

CITY           SKY/WX    TMP DP  RH WIND       PRES   REMARKS
EVERETT        LGT RAIN  36  34  92 SE10      30.05F
BOEING FIELD   LGT RAIN  37  35  92 S15       30.10S
RENTON         LGT RAIN  36  34  92 S13       30.09F FOG
SEATAC AIRPORT LGT SNOW  35  34  96 S13       30.08S FOG     WCI  26
JBLM-MCCHORD   NOT AVBL
PUYALLUP       LGT SNOW  36  34  93 S3        30.09S
BREMERTON      CLOUDY    34  32  93 S10       30.10S WCI  26
JBLM-FT LEWIS  NOT AVBL
TACOMA NARROWS LGT SNOW  34  34 100 S10       30.09S FOG     WCI  26
$$

WAZ001-503-506-510-514-515-051600-
NORTH INTERIOR

CITY           SKY/WX    TMP DP  RH WIND       PRES   REMARKS
BELLINGHAM     LGT RAIN  37  33  85 E10       30.05S
FRIDAY HARBOR  CLOUDY    40  34  79 S15G22    30.03F
EASTSOUND      MOCLDY    37  36  93 S7        30.01F
PORT ANGELES   MOCLDY    35  31  85 SW7       30.01F
EDIZ HOOK      PTSUNNY   38  32  78 SW7       30.03F
PORT TOWNSEND    N/A    N/A N/A N/A MISG        N/A
NAS WHIDBEY    CLOUDY    41  32  70 SE18G25   30.08F
ARLINGTON      CLOUDY    37  25  60 SE12      30.09F
BURLINGTON     CLOUDY    37  34  87 SE9G15    30.07S
$$

WAZ020-022-039-040-504-511-512-051600-
SOUTHWEST INTERIOR

CITY           SKY/WX    TMP DP  RH WIND       PRES   REMARKS
SHELTON        LGT SNOW  34  32  92 CALM      30.06S FOG
OLYMPIA        FLURRIES  34  34 100 S8        30.09S
CHEHALIS       LGT RAIN  34  34 100 VRB7      30.11F
KELSO          RAIN      36  34  92 SE12G17   30.14F
VANCOUVER      LGT RAIN  39  35  86 VRB7      30.17F
SCAPPOOSE, OR  LGT RAIN  37  35  92 S7        30.15F
PORTLAND, OR   LGT RAIN  38  35  89 S7        30.17F
$$

WAZ021-516-517-051600-
WASHINGTON COAST

CITY           SKY/WX    TMP DP  RH WIND       PRES   REMARKS
FORKS          MOCLDY    33  32  96 CALM      30.03S
HOQUIAM        CLOUDY    36  36 100 E10       30.07S
ASTORIA, OR    CLOUDY    43  36  76 W15       30.08F
$$

WAZ019-023-024-040-567>569-051600-
CASCADE MOUNTAINS AND COLUMBIA GORGE

CITY           SKY/WX    TMP DP  RH WIND       PRES   REMARKS
STAMPEDE PASS  CLOUDY    22  21  96 CALM      29.93S
TROUTDALE, OR  LGT RAIN  38  35  89 E3        30.17F
THE DALLES, OR PTCLDY    33  26  75 CALM      30.16R
$$

WAZ026-027-041>044-520-521-051600-
EAST SLOPES

CITY           SKY/WX    TMP DP  RH WIND       PRES   REMARKS
OMAK           CLEAR     18  13  80 W3        30.10S
WENATCHEE      PTCLDY    26  20  77 CALM      30.07S
ELLENSBURG     PTCLDY    25  20  81 NE5       30.05S
YAKIMA         PTCLDY    18  14  84 NW5       30.10F
$$

WAZ028-034-035-051600-
COLUMBIA BASIN

CITY           SKY/WX    TMP DP  RH WIND       PRES   REMARKS
EPHRATA        PTCLDY    20  13  74 NE7       30.07F
MOSES LAKE     PTCLDY    19  16  88 NE5       30.09S
PASCO          CLEAR     26  23  88 E5        30.14S
HERMISTON, OR  CLEAR     29  22  75 SW5       30.13F
$$

WAZ036>038-051600-
NORTHEAST WASHINGTON

CITY           SKY/WX    TMP DP  RH WIND       PRES   REMARKS
SPOKANE GEIGER MOCLDY    20  17  88 SE6       30.04S
SPOKANE FELTS  CLEAR     24  20  84 CALM      30.08R
FAIRCHILD AFB  NOT AVBL
COEURDALENE,ID CLEAR     21  17  84 SW5       30.06R
DEER PARK      PTCLDY    16  12  84 SE6       30.06R
$$

WAZ029>033-051600-
SOUTHEAST WASHINGTON

CITY           SKY/WX    TMP DP  RH WIND       PRES   REMARKS
PULLMAN        CLEAR     24  20  84 W5        30.07S
LEWISTON, ID   CLEAR     28  18  66 E3        30.11S
WALLA WALLA    CLEAR     30  21  69 S6        30.12S
PENDLETON, OR  CLOUDY    30  20  66 S9        30.11S
$$




USA.gov is the U.S. government's official web portal to all federal, state and local government web resources and services.